This is the latest recevied weather packets stored in our database for station/object Wangen. If no packets are shown the sender has not sent any weather packets the latest 10 day(s).
| Time | Temp. | Humidity | Pressure | Rain* | Wind** | Luminosity | Snow |
|---|---|---|---|---|---|---|---|
| 1777870930 | 10.56° C | 84% | 1012.7 hPa | 0 mm | - | - | - |
| 1777869131 | 10° C | 85% | 1012.7 hPa | 0 mm | - | - | - |
| 1777867331 | 10° C | 85% | 1012.8 hPa | 0 mm | - | - | - |
| 1777865531 | 10° C | 85% | 1012.8 hPa | 0 mm | - | - | - |
| 1777863732 | 11.11° C | 82% | 1013.2 hPa | 0 mm | - | - | - |
| 1777861931 | 11.67° C | 80% | 1013.2 hPa | 0 mm | - | - | - |
| 1777860132 | 12.22° C | 79% | 1013.1 hPa | 0 mm | - | - | - |
| 1777858331 | 12.22° C | 77% | 1013 hPa | 0 mm | - | - | - |
| 1777856531 | 12.78° C | 77% | 1013.2 hPa | 0 mm | - | - | - |
| 1777854730 | 12.78° C | 77% | 1013.5 hPa | 0 mm | - | - | - |
| 1777852928 | 12.78° C | 78% | 1013.7 hPa | 0 mm | - | - | - |
| 1777851129 | 12.78° C | 76% | 1014 hPa | 0 mm | - | - | - |
| 1777849329 | 13.33° C | 73% | 1014.2 hPa | 0 mm | - | - | - |
| 1777847530 | 13.89° C | 72% | 1014.2 hPa | 0 mm | - | - | - |
| 1777845732 | 14.44° C | 69% | 1013.8 hPa | 0 mm | - | - | - |
| 1777843930 | 14.44° C | 67% | 1013.6 hPa | 0 mm | - | - | - |
| 1777842131 | 15° C | 66% | 1013.4 hPa | 0 mm | - | - | - |
| 1777840329 | 15° C | 64% | 1013.2 hPa | 0 mm | - | - | - |
| 1777838531 | 15.56° C | 62% | 1012.8 hPa | 0 mm | - | - | - |
| 1777836730 | 16.67° C | 57% | 1012.6 hPa | 0 mm | - | - | - |
| 1777834930 | 17.78° C | 53% | 1012 hPa | 0 mm | - | - | - |
| 1777833130 | 17.78° C | 49% | 1011.6 hPa | 0 mm | - | - | - |
| 1777831330 | 20° C | 45% | 1011.5 hPa | 0 mm | - | - | - |
| 1777829530 | 21.67° C | 47% | 1010.5 hPa | 0 mm | - | - | - |
| 1777827731 | 22.22° C | 45% | 1010.5 hPa | 0 mm | - | - | - |
* Rain since midnight (hover to see other rain measurements)
** Current wind speed in m/s (hover to see current wind gust speed)